Weather Roundup
Issued by NWS

Home | Current Version | Previous Version | Text Only | Print | Product List | Glossary On
Versions: 1 2 3 4 5 6 7 8 9 10 11 12 13 14 15 16 17 18 19 20 21 22 23 24 25 26 27 28 29 30 31 32 33 34 35 36 37 38 39 40 41 42 43 44 45 46 47 48 49 50
000
NZUS93 KARX 181610
HRRWXR

CURRENT HOURLY OBSERVATIONS ACROSS
MUCH OF THE UPPER MISSISSIPPI VALLEY
NATIONAL WEATHER SERVICE LA CROSSE WI
1000 AM CST SAT FEB 18 2017


...SOUTHEAST MINNESOTA...


CITY           SKY/WX    TMP DP  RH WIND       PRES   REMARKS
ROCHESTER      MOSUNNY   40  36  86 NW7       29.77R
ROCHESTER/MAYO FAIR      42  34  73 NW7       29.77R
WINONA         MOSUNNY   46  36  66 N3        29.77R
AUSTIN         MOSUNNY   43  36  75 NW9       29.78R
ALBERT LEA     MOSUNNY   43  36  75 NW6       29.78R
DODGE CENTER   CLOUDY    41  36  81 NW12      29.77R
PRESTON        CLOUDY    42  34  72 N7        29.77R
OWATONNA       SUNNY     41  34  75 W3        29.78R
FARIBAULT      SUNNY     45  36  70 NW5       29.78R
$$

...ELSEWHERE IN MINNESOTA...


CITY           SKY/WX    TMP DP  RH WIND       PRES   REMARKS
MINNEAPOLIS    MOSUNNY   46  34  62 NW5       29.77R
INTNL FALLS    SUNNY     40  31  70 W14       29.59R WCI  32
DULUTH         SUNNY     43  33  68 W13       29.64R
RED WING       SUNNY     43  34  70 W8        29.76R
REDWOOD FALLS  CLOUDY    41  33  73 NW7       29.78S
MANKATO          N/A     42  35  76 NW6       29.78S
WORTHINGTON    MOSUNNY   42  35  76 N5        29.80R
FAIRMONT       MOSUNNY   41  34  76 NW8       29.79R
$$

...SOUTHWEST WISCONSIN...


CITY           SKY/WX    TMP DP  RH WIND       PRES   REMARKS
LA CROSSE      MOSUNNY   48  36  63 N7        29.75R
PRAIRIE DU CHI SUNNY     45  34  65 CALM      29.77R
BOSCOBEL       SUNNY     50  36  58 SW5       29.76R
LONE ROCK      SUNNY     47  36  65 SW6       29.76R
PLATTEVILLE    SUNNY     47  39  74 W7        29.77R
FORT MC COY    SUNNY     47  37  65 W3        29.75R
CAMP DOUGLAS   MOSUNNY   48  37  66 W10       29.73R
MAUSTON-NEW LI MOSUNNY   47  37  69 NW8       29.72R
VIROQUA        FAIR      44  36  74 CALM      29.75R
WIS DELLS      SUNNY     48  34  58 CALM      29.73R
$$

...ELSEWHERE IN WISCONSIN...


CITY           SKY/WX    TMP DP  RH WIND       PRES   REMARKS
MILWAUKEE      SUNNY     55  36  48 W13       29.71R
MADISON        MOSUNNY   49  37  63 NW7       29.74R
GREEN BAY      SUNNY     48  39  71 W14       29.66R
EAU CLAIRE     MOSUNNY   44  35  70 NW7       29.73R
BLACK RVR FLS  FAIR      48  34  59 W6        29.74R
MEDFORD        SUNNY     39  33  78 NW6       29.69R WCI  35
WAUSAU         SUNNY     41  34  76 NW9       29.68R
WIS RAPIDS     SUNNY     45  35  68 VRB6      29.72R
MARSHFIELD     SUNNY     40  33  76 NW12      29.69R WCI  33
RICE LAKE      SUNNY     40  33  77 CALM      29.75R
$$

...NORTHEAST IOWA...


CITY           SKY/WX    TMP DP  RH WIND       PRES   REMARKS
WATERLOO       SUNNY     47  35  63 NW6       29.79R
DUBUQUE        SUNNY     49  36  61 NW5       29.77R
DECORAH        SUNNY     45  36  70 NW8       29.76R
MASON CITY     SUNNY     44  37  76 NW12      29.80R
CHARLES CITY   SUNNY     43  39  87 NW8       29.79R
OELWEIN        SUNNY     43  37  81 NW7       29.79R
$$

...ELSEWHERE IN IOWA...


CITY           SKY/WX    TMP DP  RH WIND       PRES   REMARKS
DES MOINES     MOSUNNY   49  36  61 W3        29.83R
IOWA CITY      SUNNY     51  37  58 NW6       29.82R
FORT DODGE     SUNNY     45  36  70 W5        29.82R
MARSHALLTOWN   SUNNY     45  37  73 W5        29.81R
CEDAR RAPIDS   SUNNY     46  38  73 NW5       29.79R
$$

...NORTHERN ILLINOIS...


CITY           SKY/WX    TMP DP  RH WIND       PRES   REMARKS
CHICAGO-OHARE  MOSUNNY   55  37  50 W9        29.73S
CHICAGO-MIDWAY MOSUNNY   56  36  47 SW7       29.74S
MOLINE         SUNNY     55  37  50 W5        29.78R
ROCKFORD       MOSUNNY   53  37  54 SW5       29.78R
PEORIA         SUNNY     54  38  54 SW7       29.79R
$$

NOTE: "FAIR" INDICATES FEW OR NO CLOUDS BELOW 12,000 FEET WITH NO
SIGNIFICANT WEATHER AND/OR OBSTRUCTIONS TO VISIBILITY. WIND
SPEEDS ARE IN MILES-PER-HOUR.




USA.gov is the U.S. government's official web portal to all federal, state and local government web resources and services.